GLD352 SUMU-SACO

Flight info

Callsign GLD352
Flight time N/A
Altitude 36000
Route DCT NIMBO UL417 GUA UW2 ROS UW5 ASISA ASIS1Q
Aircraft A320/M-SDFGIRY/S

Departure

Time 2026-04-30 21:56
Airport Carrasco General Cesáreo L. Berisso International Airport (SUMU)

Arrival

Time N/A
Airport Ingeniero Aeronáutico Ambrosio L.V. Taravella International Airport (SACO)
Time Latitude Longitude Altitude Speed Heading
2026-04-30 21:37 -34.83619 -56.01802 82 ft 0 kts 144°
2026-04-30 21:45 -34.83615 -56.01805 82 ft 3 kts 144°
2026-04-30 21:45 -34.83593 -56.01823 87 ft 4 kts 151°
2026-04-30 21:46 -34.83569 -56.01837 87 ft 4 kts 165°
2026-04-30 21:46 -34.83544 -56.01840 85 ft 4 kts 207°
2026-04-30 21:46 -34.83534 -56.01830 85 ft 1 kts 233°
2026-04-30 21:46 -34.83533 -56.01829 85 ft 2 kts 233°
2026-04-30 21:50 -34.83541 -56.01842 85 ft 5 kts 233°
2026-04-30 21:50 -34.83581 -56.01908 84 ft 14 kts 233°
2026-04-30 21:50 -34.83655 -56.02031 85 ft 21 kts 234°
2026-04-30 21:50 -34.83742 -56.02171 84 ft 19 kts 231°
2026-04-30 21:51 -34.83849 -56.02238 84 ft 15 kts 191°
2026-04-30 21:51 -34.83935 -56.02276 84 ft 13 kts 232°
2026-04-30 21:51 -34.83945 -56.02392 82 ft 15 kts 271°
2026-04-30 21:51 -34.83944 -56.02532 82 ft 18 kts 270°
2026-04-30 21:52 -34.83957 -56.02679 85 ft 17 kts 250°
2026-04-30 21:52 -34.84012 -56.02815 85 ft 19 kts 257°
2026-04-30 21:52 -34.84006 -56.02979 82 ft 20 kts 270°
2026-04-30 21:52 -34.84007 -56.03003 82 ft 0 kts 265°
2026-04-30 21:53 -34.84007 -56.03005 82 ft 1 kts 265°
2026-04-30 21:54 -34.84011 -56.03031 85 ft 6 kts 259°
2026-04-30 21:54 -34.84052 -56.03068 85 ft 11 kts 194°
2026-04-30 21:54 -34.84136 -56.03030 85 ft 16 kts 148°
2026-04-30 21:54 -34.84128 -56.03075 82 ft 16 kts 354°
2026-04-30 21:55 -34.84082 -56.03079 83 ft 28 kts 357°
2026-04-30 21:55 -34.83632 -56.03084 82 ft 98 kts
2026-04-30 21:55 -34.82774 -56.03100 94 ft 146 kts 358°
2026-04-30 21:55 -34.81745 -56.03092 651 ft 147 kts
2026-04-30 21:56 -34.80663 -56.03040 1108 ft 164 kts
2026-04-30 21:56 -34.79464 -56.03062 1585 ft 179 kts 359°
2026-04-30 21:56 -34.78163 -56.03419 1962 ft 205 kts 328°
2026-04-30 21:56 -34.77098 -56.04733 2383 ft 233 kts 309°
2026-04-30 21:57 -34.76124 -56.06463 2979 ft 252 kts 304°
2026-04-30 21:57 -34.75182 -56.08292 3899 ft 257 kts 303°
2026-04-30 21:57 -34.74222 -56.10143 4861 ft 261 kts 303°
2026-04-30 21:57 -34.73181 -56.12081 5825 ft 265 kts 303°
2026-04-30 21:58 -34.72126 -56.13975 6725 ft 269 kts 304°
2026-04-30 21:58 -34.71055 -56.15849 7620 ft 271 kts 304°
2026-04-30 21:58 -34.69965 -56.17724 8543 ft 272 kts 304°
2026-04-30 21:58 -34.68864 -56.19605 9457 ft 274 kts 304°
2026-04-30 21:59 -34.67754 -56.21494 10284 ft 278 kts 304°
2026-04-30 21:59 -34.66582 -56.23489 10570 ft 301 kts 304°
2026-04-30 21:59 -34.65335 -56.25606 11047 ft 313 kts 304°
2026-04-30 22:00 -34.62766 -56.29956 12522 ft 320 kts 303°
2026-04-30 22:00 -34.60155 -56.34378 14038 ft 324 kts 303°
2026-04-30 22:00 -34.58835 -56.36610 14711 ft 326 kts 303°
2026-04-30 22:01 -34.57514 -56.38849 15397 ft 327 kts 303°
2026-04-30 22:01 -34.56184 -56.41096 16076 ft 328 kts 303°
2026-04-30 22:01 -34.54845 -56.43351 16734 ft 330 kts 303°
2026-04-30 22:01 -34.53502 -56.45611 17410 ft 331 kts 303°
2026-04-30 22:02 -34.52153 -56.47883 18078 ft 333 kts 303°
2026-04-30 22:02 -34.50780 -56.50151 18697 ft 335 kts 305°
2026-04-30 22:02 -34.49322 -56.52365 19287 ft 337 kts 306°
2026-04-30 22:02 -34.47809 -56.54546 19885 ft 339 kts 307°
2026-04-30 22:03 -34.46273 -56.56722 20469 ft 341 kts 307°
2026-04-30 22:03 -34.44728 -56.58910 21042 ft 343 kts 307°
2026-04-30 22:03 -34.43179 -56.61119 21592 ft 345 kts 307°
2026-04-30 22:03 -34.41632 -56.63341 22124 ft 346 kts 306°
2026-04-30 22:04 -34.40076 -56.65586 22637 ft 349 kts 306°
2026-04-30 22:04 -34.38519 -56.67842 23159 ft 351 kts 306°
2026-04-30 22:04 -34.35367 -56.72408 24097 ft 355 kts 306°
2026-04-30 22:05 -34.33778 -56.74707 24523 ft 357 kts 306°
2026-04-30 22:05 -34.32182 -56.77017 24943 ft 359 kts 306°
2026-04-30 22:05 -34.30574 -56.79348 25366 ft 361 kts 307°
2026-04-30 22:05 -34.28956 -56.81686 25779 ft 364 kts 307°
2026-04-30 22:06 -34.27326 -56.84033 26192 ft 366 kts 307°
2026-04-30 22:06 -34.24563 -56.88006 26844 ft 370 kts 307°
2026-04-30 22:06 -34.22904 -56.90389 27249 ft 372 kts 307°
2026-04-30 22:07 -34.21231 -56.92789 27642 ft 374 kts 307°
2026-04-30 22:07 -34.19000 -56.95990 28161 ft 377 kts 307°
2026-04-30 22:07 -34.17857 -56.97628 28440 ft 379 kts 307°
2026-04-30 22:07 -34.16153 -57.00068 28835 ft 381 kts 307°
2026-04-30 22:08 -34.14438 -57.02522 29232 ft 383 kts 307°
2026-04-30 22:08 -34.12715 -57.04989 29631 ft 386 kts 307°
2026-04-30 22:08 -34.10980 -57.07470 30025 ft 388 kts 307°
2026-04-30 22:08 -34.09233 -57.09965 30363 ft 390 kts 307°
2026-04-30 22:09 -34.07478 -57.12470 30696 ft 393 kts 308°
2026-04-30 22:09 -34.05709 -57.14989 31006 ft 395 kts 308°
2026-04-30 22:09 -34.03927 -57.17529 31328 ft 397 kts 307°
2026-04-30 22:09 -34.02147 -57.20068 31769 ft 396 kts 307°
2026-04-30 22:10 -34.00370 -57.22595 32245 ft 395 kts 307°
2026-04-30 22:10 -33.98598 -57.25111 32718 ft 393 kts 307°
2026-04-30 22:10 -33.96851 -57.27589 33179 ft 392 kts 307°
2026-04-30 22:10 -33.95064 -57.30125 33642 ft 391 kts 307°
2026-04-30 22:11 -33.91577 -57.35066 34496 ft 389 kts 307°
2026-04-30 22:11 -33.89803 -57.37575 34909 ft 387 kts 307°
2026-04-30 22:11 -33.88062 -57.40038 35314 ft 386 kts 307°
2026-04-30 22:12 -33.86330 -57.42495 35682 ft 385 kts 307°
2026-04-30 22:12 -33.84602 -57.44949 35948 ft 384 kts 307°
2026-04-30 22:12 -33.82880 -57.47396 36003 ft 382 kts 307°
2026-04-30 22:13 -33.79455 -57.52255 36002 ft 380 kts 307°
2026-04-30 22:13 -33.76045 -57.57086 36000 ft 379 kts 307°
2026-04-30 22:14 -33.72632 -57.61900 35999 ft 379 kts 307°
2026-04-30 22:14 -33.69212 -57.66712 36008 ft 379 kts 307°
2026-04-30 22:15 -33.65796 -57.71527 36002 ft 379 kts 307°
2026-04-30 22:15 -33.62381 -57.76344 35981 ft 379 kts 307°
2026-04-30 22:16 -33.58962 -57.81147 35996 ft 379 kts 307°
2026-04-30 22:17 -33.52090 -57.90767 36004 ft 378 kts 307°
2026-04-30 22:17 -33.47146 -57.97680 35991 ft 378 kts 307°
2026-04-30 22:18 -33.42005 -58.04823 35992 ft 377 kts 307°
2026-04-30 22:19 -33.36867 -58.11956 36001 ft 377 kts 307°
2026-04-30 22:20 -33.31729 -58.19079 35987 ft 377 kts 307°
2026-04-30 22:20 -33.26589 -58.26191 35997 ft 377 kts 307°
2026-04-30 22:21 -33.23157 -58.30919 35994 ft 376 kts 307°
2026-04-30 22:21 -33.19728 -58.35638 35995 ft 376 kts 307°
2026-04-30 22:22 -33.16320 -58.40372 35990 ft 375 kts 304°
2026-04-30 22:22 -33.15063 -58.43060 35963 ft 371 kts 289°
2026-04-30 22:22 -33.14362 -58.46014 35967 ft 370 kts 285°
2026-04-30 22:23 -33.13069 -58.51959 35979 ft 370 kts 285°
2026-04-30 22:23 -33.11786 -58.57904 35981 ft 370 kts 285°
2026-04-30 22:24 -33.10495 -58.63848 35975 ft 370 kts 285°
2026-04-30 22:24 -33.09194 -58.69792 35976 ft 370 kts 285°
2026-04-30 22:25 -33.07887 -58.75727 35975 ft 370 kts 285°
2026-04-30 22:25 -33.06574 -58.81660 35974 ft 370 kts 285°
2026-04-30 22:26 -33.04624 -58.90523 35951 ft 370 kts 285°
2026-04-30 22:27 -33.03318 -58.96453 35961 ft 370 kts 285°
2026-04-30 22:27 -33.01343 -59.05328 35980 ft 369 kts 285°
2026-04-30 22:28 -32.99364 -59.14208 35970 ft 370 kts 285°
2026-04-30 22:29 -32.96714 -59.26062 35963 ft 370 kts 285°
2026-04-30 22:31 -32.92029 -59.46825 35950 ft 370 kts 285°
2026-04-30 22:32 -32.88681 -59.61592 35959 ft 370 kts 286°
2026-04-30 22:33 -32.85312 -59.76353 35946 ft 370 kts 286°
2026-04-30 22:35 -32.81916 -59.91092 35946 ft 369 kts 286°
2026-04-30 22:36 -32.78528 -60.05811 35929 ft 369 kts 286°
2026-04-30 22:37 -32.75793 -60.17570 35935 ft 369 kts 286°
2026-04-30 22:38 -32.73044 -60.29378 35918 ft 370 kts 287°
2026-04-30 22:39 -32.70980 -60.38212 35915 ft 370 kts 287°
2026-04-30 22:40 -32.66804 -60.55895 35906 ft 371 kts 287°
2026-04-30 22:41 -32.63531 -60.69747 35912 ft 372 kts 287°
2026-04-30 22:43 -32.59317 -60.87440 35902 ft 373 kts 287°
2026-04-30 22:44 -32.56480 -60.99260 35900 ft 373 kts 287°
2026-04-30 22:45 -32.52201 -61.17002 35902 ft 374 kts 287°
2026-04-30 22:47 -32.47898 -61.34763 35907 ft 374 kts 287°
2026-04-30 22:48 -32.45003 -61.46598 35901 ft 374 kts 287°
2026-04-30 22:49 -32.40647 -61.64359 35893 ft 375 kts 287°
2026-04-30 22:51 -32.36265 -61.82106 35891 ft 374 kts 288°
2026-04-30 22:52 -32.33961 -61.90917 35893 ft 373 kts 294°
2026-04-30 22:52 -32.31416 -61.96237 35063 ft 371 kts 301°
2026-04-30 22:53 -32.28745 -62.01428 34164 ft 367 kts 301°
2026-04-30 22:53 -32.26132 -62.06563 33203 ft 362 kts 301°
2026-04-30 22:53 -32.24841 -62.09103 32713 ft 360 kts 301°
2026-04-30 22:54 -32.22278 -62.14134 31765 ft 355 kts 301°
2026-04-30 22:55 -32.18502 -62.21528 30470 ft 347 kts 301°
2026-04-30 22:55 -32.16020 -62.26381 29551 ft 344 kts 301°
2026-04-30 22:56 -32.13535 -62.31223 28599 ft 341 kts 301°
2026-04-30 22:56 -32.09886 -62.38340 27287 ft 335 kts 302°
2026-04-30 22:57 -32.07479 -62.43025 26425 ft 332 kts 302°
2026-04-30 22:57 -32.05092 -62.47654 25576 ft 329 kts 302°
2026-04-30 22:58 -32.02735 -62.52236 24740 ft 325 kts 302°
2026-04-30 22:59 -31.99229 -62.59041 23486 ft 322 kts 302°
2026-04-30 22:59 -31.95754 -62.65758 22111 ft 318 kts 302°